When you browse on this site, cookies collect data to enhance your experience and personalize the content and advertising you see.
Visit our Privacy Policy to learn more. By continuing to use the site, you agree to this use of cookies and data.
  • In Romania
  • List of Countries
  • For 7 days
  • Water Temperature
  • Weather Map
  • Weather Widgets
  • user-avatar
    Login

    Hourly Weather Vinnitsa

    Today, 25 January, Saturday

    Time Temperature Precipitation Wind Pressure Humidity
    00:00 -3°C° 0 mm 4 mps 737 mmHg 69%
    01:00 -3°C° 0 mm 4 mps 737 mmHg 69%
    02:00 -3°C° 0 mm 4 mps 737 mmHg 70%
    03:00 -3°C° 0 mm 4 mps 736 mmHg 70%
    04:00 -4°C° 0 mm 5 mps 736 mmHg 71%
    05:00 -5°C° 0 mm 5 mps 736 mmHg 72%
    06:00 -5°C° 0 mm 5 mps 736 mmHg 72%
    07:00 -5°C° 0 mm 5 mps 736 mmHg 72%
    08:00 -5°C° 0 mm 5 mps 736 mmHg 72%
    09:00 -4°C° 0 mm 5 mps 736 mmHg 70%
    10:00 -2°C° 0 mm 5 mps 737 mmHg 68%
    11:00 -1°C° 0 mm 5 mps 737 mmHg 65%
    12:00 -1°C° 0 mm 5 mps 737 mmHg 64%
    13:00 0°C° 0 mm 5 mps 737 mmHg 63%
    14:00 0°C° 0 mm 5 mps 737 mmHg 62%
    15:00 0°C° 0 mm 5 mps 737 mmHg 65%
    16:00 -1°C° 0 mm 4 mps 737 mmHg 68%
    17:00 -2°C° 0 mm 4 mps 737 mmHg 71%
    18:00 -2°C° 0 mm 4 mps 737 mmHg 72%
    19:00 -2°C° 0 mm 4 mps 737 mmHg 72%
    20:00 -1°C° 0 mm 4 mps 737 mmHg 73%
    21:00 -2°C° 0 mm 4 mps 738 mmHg 75%
    22:00 -2°C° 0 mm 4 mps 738 mmHg 77%
    23:00 -1°C° 0 mm 3 mps 738 mmHg 79%

    Tomorrow, 26 January, Sunday

    Time Temperature Precipitation Wind Pressure Humidity
    00:00 -1°C° 0 mm 3 mps 739 mmHg 80%
    01:00 -1°C° 0 mm 3 mps 739 mmHg 81%
    02:00 -1°C° 0 mm 3 mps 739 mmHg 82%
    03:00 -1°C° 0 mm 3 mps 739 mmHg 85%
    04:00 -1°C° 0 mm 3 mps 739 mmHg 88%
    05:00 -2°C° 0 mm 2 mps 739 mmHg 90%
    06:00 -2°C° 0 mm 2 mps 739 mmHg 91%
    07:00 -1°C° 0 mm 2 mps 740 mmHg 91%
    08:00 +1°C° 0 mm 1 mps 740 mmHg 91%
    09:00 +1°C° 0 mm 1 mps 740 mmHg 89%
    10:00 +2°C° 0 mm 1 mps 740 mmHg 87%
    11:00 +2°C° 0 mm 1 mps 741 mmHg 85%
    12:00 +2°C° 0 mm 1 mps 740 mmHg 84%
    13:00 +3°C° 0 mm 1 mps 740 mmHg 84%
    14:00 +2°C° 0 mm 2 mps 740 mmHg 83%
    15:00 +3°C° 0 mm 1 mps 740 mmHg 85%
    16:00 +2°C° 0 mm 1 mps 740 mmHg 87%
    17:00 +2°C° 0 mm 1 mps 740 mmHg 88%
    18:00 -1°C° 0 mm 2 mps 739 mmHg 89%
    19:00 -1°C° 0 mm 2 mps 739 mmHg 89%
    20:00 -1°C° 0 mm 2 mps 739 mmHg 89%
    21:00 -1°C° 0 mm 2 mps 739 mmHg 89%
    22:00 -1°C° 0 mm 2 mps 739 mmHg 88%
    23:00 -1°C° 0 mm 2 mps 739 mmHg 87%

    Day after tomorrow, 27 January, Monday

    Time Temperature Precipitation Wind Pressure Humidity
    00:00 -1°C° 0 mm 2 mps 739 mmHg 86%
    01:00 -2°C° 0 mm 2 mps 739 mmHg 86%
    02:00 -2°C° 0 mm 2 mps 738 mmHg 85%
    03:00 -2°C° 0 mm 2 mps 738 mmHg 85%
    04:00 -2°C° 0 mm 2 mps 738 mmHg 86%
    05:00 -2°C° 0 mm 2 mps 738 mmHg 86%
    06:00 -2°C° 0 mm 2 mps 737 mmHg 86%
    07:00 -2°C° 0 mm 2 mps 737 mmHg 87%
    08:00 -2°C° 0 mm 2 mps 737 mmHg 87%
    09:00 -1°C° 0 mm 2 mps 737 mmHg 81%
    10:00 0°C° 0 mm 3 mps 737 mmHg 75%
    11:00 +1°C° 0 mm 3 mps 737 mmHg 70%
    12:00 +2°C° 0 mm 3 mps 737 mmHg 68%
    13:00 +3°C° 0 mm 2 mps 736 mmHg 66%
    14:00 +4°C° 0 mm 2 mps 736 mmHg 64%
    15:00 +3°C° 0 mm 2 mps 736 mmHg 68%
    16:00 +2°C° 0 mm 2 mps 735 mmHg 73%
    17:00 +1°C° 0 mm 2 mps 735 mmHg 77%
    18:00 +1°C° 0 mm 2 mps 735 mmHg 79%
    19:00 -1°C° 0 mm 2 mps 735 mmHg 81%
    20:00 -1°C° 0 mm 2 mps 735 mmHg 83%
    21:00 -1°C° 0 mm 2 mps 735 mmHg 85%
    22:00 -1°C° 0 mm 2 mps 735 mmHg 86%
    23:00 -1°C° 0 mm 2 mps 735 mmHg 88%

    28 January, Tuesday

    Time Temperature Precipitation Wind Pressure Humidity
    00:00 -1°C° 0 mm 2 mps 734 mmHg 88%
    01:00 -2°C° 0 mm 2 mps 734 mmHg 88%
    02:00 0°C° 0 mm 1 mps 734 mmHg 89%
    03:00 0°C° 0 mm 1 mps 733 mmHg 89%
    04:00 0°C° 0 mm 1 mps 733 mmHg 89%
    05:00 0°C° 0 mm 1 mps 733 mmHg 89%
    06:00 0°C° 0 mm 1 mps 733 mmHg 89%
    07:00 +1°C° 0 mm 1 mps 733 mmHg 89%
    08:00 +1°C° 0 mm 1 mps 732 mmHg 89%
    09:00 +2°C° 0 mm 1 mps 732 mmHg 84%
    10:00 +3°C° 0 mm 1 mps 732 mmHg 79%
    11:00 +4°C° 0 mm 1 mps 732 mmHg 74%
    12:00 +5°C° 0 mm 1 mps 732 mmHg 73%
    13:00 +4°C° 0 mm 2 mps 731 mmHg 71%
    14:00 +5°C° 0 mm 2 mps 731 mmHg 70%
    15:00 +4°C° 0 mm 2 mps 730 mmHg 75%
    16:00 +3°C° 0 mm 2 mps 730 mmHg 80%
    17:00 +2°C° 0 mm 2 mps 730 mmHg 86%
    18:00 +1°C° 0 mm 2 mps 729 mmHg 88%
    19:00 0°C° 0 mm 3 mps 729 mmHg 90%
    20:00 0°C° 0 mm 3 mps 729 mmHg 93%
    21:00 0°C° 0 mm 3 mps 729 mmHg 93%
    22:00 -1°C° 0 mm 4 mps 728 mmHg 94%
    23:00 -1°C° 0 mm 4 mps 728 mmHg 95%

    29 January, Wednesday

    Time Temperature Precipitation Wind Pressure Humidity
    00:00 0°C° 0 mm 4 mps 728 mmHg 95%
    01:00 0°C° 0 mm 5 mps 727 mmHg 95%
    02:00 0°C° 0 mm 5 mps 726 mmHg 96%
    03:00 0°C° 0 mm 5 mps 726 mmHg 95%
    04:00 0°C° 0 mm 5 mps 725 mmHg 95%
    05:00 -1°C° 0 mm 6 mps 724 mmHg 94%
    06:00 -1°C° 0 mm 6 mps 724 mmHg 94%
    07:00 -1°C° 0 mm 6 mps 723 mmHg 94%
    08:00 -1°C° 0 mm 6 mps 722 mmHg 94%
    09:00 +1°C° 0.7 mm 6 mps 722 mmHg 93%
    10:00 +1°C° 0.7 mm 6 mps 722 mmHg 93%
    11:00 +1°C° 0.7 mm 5 mps 722 mmHg 92%
    12:00 +1°C° 0 mm 6 mps 722 mmHg 92%
    13:00 0°C° 0 mm 7 mps 722 mmHg 92%
    14:00 -1°C° 0 mm 7 mps 722 mmHg 92%
    15:00 -1°C° 0.1 mm 7 mps 722 mmHg 89%
    16:00 -1°C° 0.1 mm 7 mps 723 mmHg 86%
    17:00 -1°C° 0.1 mm 7 mps 724 mmHg 83%
    18:00 -2°C° 0 mm 7 mps 724 mmHg 78%
    19:00 -2°C° 0 mm 6 mps 725 mmHg 72%
    20:00 -1°C° 0 mm 5 mps 725 mmHg 67%
    21:00 -2°C° 0 mm 5 mps 725 mmHg 70%
    22:00 -2°C° 0 mm 4 mps 725 mmHg 73%
    23:00 -2°C° 0 mm 3 mps 726 mmHg 77%

    30 January, Thursday

    Time Temperature Precipitation Wind Pressure Humidity
    00:00 -2°C° 0 mm 4 mps 726 mmHg 73%
    01:00 -2°C° 0 mm 5 mps 726 mmHg 69%
    02:00 -2°C° 0 mm 6 mps 726 mmHg 66%
    03:00 -2°C° 0 mm 5 mps 726 mmHg 68%
    04:00 -2°C° 0 mm 5 mps 726 mmHg 70%
    05:00 -2°C° 0 mm 5 mps 726 mmHg 73%
    06:00 -2°C° 0 mm 4 mps 726 mmHg 77%
    07:00 -3°C° 0 mm 4 mps 726 mmHg 81%
    08:00 -3°C° 0 mm 4 mps 726 mmHg 85%
    09:00 -2°C° 0 mm 4 mps 727 mmHg 83%
    10:00 -2°C° 0 mm 4 mps 728 mmHg 81%
    11:00 -1°C° 0 mm 5 mps 729 mmHg 78%
    12:00 -1°C° 0 mm 5 mps 729 mmHg 75%
    13:00 -2°C° 0 mm 6 mps 729 mmHg 73%
    14:00 -1°C° 0 mm 6 mps 730 mmHg 70%
    15:00 -2°C° 0 mm 6 mps 730 mmHg 72%
    16:00 -1°C° 0 mm 5 mps 730 mmHg 73%
    17:00 -1°C° 0 mm 5 mps 731 mmHg 75%
    18:00 -2°C° 0 mm 5 mps 731 mmHg 79%
    19:00 -2°C° 0 mm 4 mps 731 mmHg 82%
    20:00 -3°C° 0 mm 4 mps 731 mmHg 86%
    21:00 -3°C° 0 mm 4 mps 731 mmHg 87%
    22:00 -3°C° 0 mm 4 mps 731 mmHg 88%
    23:00 -3°C° 0 mm 4 mps 731 mmHg 89%
    Show more